CW3783 Weather Reports


Display with metric or nautical units.
time (UTC)temp
F
wind
direction
speed
MPH
gust
MPH
rain 1hr
in
rain 24hr
in
rain mn
in
humidity
%
barometer
mb
20260904235306 83 273 2.0 3.0 0.00 0.05 0.05 76 1009.1
20260904234803 83 273 0.0 1.0 0.00 0.05 0.05 75 1009.2
20260904234304 83 273 1.0 3.0 0.00 0.05 0.05 75 1009.4
20260904233804 83 273 1.0 3.0 0.00 0.05 0.05 75 1009.4
20260904232804 83 273 2.0 3.0 0.00 0.05 0.05 74 1009.5
20260904232306 84 273 0.0 0.0 0.00 0.05 0.05 74 1009.5
20260904231304 84 273 1.0 3.0 0.00 0.05 0.05 73 1009.6
20260904230304 84 273 1.0 3.0 0.00 0.05 0.05 72 1009.5
20260904225804 84 290 2.0 3.0 0.00 0.05 0.05 72 1009.5
20260904225305 84 291 2.0 6.0 0.00 0.05 0.05 72 1009.5
20260904224803 84 291 2.0 6.0 0.00 0.05 0.05 71 1009.4
20260904224303 84 259 1.0 3.0 0.00 0.05 0.05 71 1009.3
20260904223803 85 243 2.0 3.0 0.00 0.05 0.05 71 1009.3
20260904223304 85 243 1.0 3.0 0.00 0.05 0.05 70 1009.3
20260904222803 85 243 2.0 3.0 0.00 0.05 0.05 70 1009.4
20260904222306 85 243 1.0 3.0 0.00 0.05 0.05 70 1009.5
20260904221804 85 243 0.0 2.0 0.00 0.05 0.05 70 1009.6
20260904221303 85 243 0.0 1.0 0.00 0.05 0.05 69 1009.6
20260904220804 85 243 0.0 2.0 0.00 0.05 0.05 69 1009.8
20260904220303 85 243 1.0 3.0 0.00 0.05 0.05 69 1010.0
20260904215804 85 260 1.0 2.0 0.00 0.05 0.05 68 1010.0
20260904215305 85 256 1.0 3.0 0.00 0.05 0.05 68 1009.9
20260904214804 85 289 2.0 3.0 0.00 0.05 0.05 68 1010.0
20260904214304 86 290 1.0 3.0 0.00 0.05 0.05 68 1010.1
20260904213304 86 268 2.0 3.0 0.00 0.05 0.05 66 1010.1
20260904212803 86 320 1.0 3.0 0.00 0.05 0.05 66 1010.1
20260904212306 86 281 2.0 3.0 0.00 0.05 0.05 65 1010.1
20260904211803 86 275 2.0 3.0 0.00 0.05 0.05 65 1010.1
20260904211303 86 273 1.0 3.0 0.00 0.05 0.05 64 1010.0
20260904210803 87 266 1.0 3.0 0.00 0.05 0.05 64 1010.0
20260904210304 87 316 2.0 3.0 0.00 0.05 0.05 64 1010.2
20260904205804 87 335 1.0 6.0 0.00 0.05 0.05 64 1010.3
20260904205305 87 327 3.0 7.0 0.00 0.05 0.05 63 1010.3
20260904204803 87 275 1.0 6.0 0.00 0.05 0.05 62 1010.4
20260904204304 88 278 2.0 6.0 0.00 0.05 0.05 62 1010.4
20260904203303 89 300 6.0 9.0 0.00 0.05 0.05 60 1010.5
20260904202803 89 291 2.0 8.0 0.00 0.05 0.05 61 1010.6
20260904202306 89 303 3.0 8.0 0.00 0.05 0.05 60 1010.7
20260904201803 90 286 2.0 7.0 0.00 0.05 0.05 59 1010.6
20260904201305 90 327 3.0 7.0 0.00 0.05 0.05 59 1010.7
20260904200804 90 345 4.0 9.0 0.00 0.05 0.05 58 1010.6
20260904200304 90 306 4.0 9.0 0.00 0.05 0.05 59 1010.7
20260904195306 90 305 7.0 12.0 0.00 0.05 0.05 57 1010.4
20260904194304 91 294 1.0 8.0 0.00 0.05 0.05 57 1010.2
20260904193804 91 306 7.0 13.0 0.00 0.05 0.05 57 1010.4
20260904193304 91 296 6.0 10.0 0.00 0.05 0.05 57 1010.4
20260904192306 91 11 8.0 16.0 0.00 0.05 0.05 58 1010.4
20260904190804 91 355 7.0 14.0 0.00 0.05 0.05 58 1010.7
20260904190304 91 339 9.0 13.0 0.00 0.05 0.05 58 1010.8
20260904185804 91 349 7.0 14.0 0.00 0.05 0.05 58 1010.9
20260904185306 90 284 6.0 14.0 0.00 0.05 0.05 58 1010.9
20260904184804 90 309 3.0 13.0 0.00 0.05 0.05 57 1011.1
20260904184304 91 318 7.0 14.0 0.00 0.05 0.05 58 1011.2
20260904183804 91 9 9.0 14.0 0.00 0.05 0.05 58 1011.2
20260904183303 91 318 5.0 10.0 0.00 0.05 0.05 58 1011.2
20260904182804 91 300 8.0 13.0 0.00 0.05 0.05 58 1011.2
20260904181803 91 306 4.0 9.0 0.00 0.05 0.05 59 1011.3
20260904180804 90 19 6.0 12.0 0.00 0.05 0.05 58 1011.1
20260904180305 90 303 6.0 13.0 0.00 0.05 0.05 58 1011.2
20260904175804 90 11 7.0 12.0 0.00 0.05 0.05 58 1011.2
20260904175305 90 7 9.0 15.0 0.00 0.05 0.05 58 1011.2
20260904174804 90 1 6.0 15.0 0.00 0.05 0.05 58 1011.2
20260904174304 90 2 6.0 12.0 0.00 0.05 0.05 58 1011.1
20260904172804 89 307 5.0 13.0 0.00 0.05 0.05 60 1011.2
20260904172305 89 348 7.0 12.0 0.00 0.05 0.05 60 1011.4
20260904171804 89 291 5.0 9.0 0.00 0.05 0.05 60 1011.4
20260904171304 89 335 6.0 12.0 0.00 0.05 0.05 62 1011.5
20260904170803 89 340 6.0 12.0 0.00 0.05 0.05 61 1011.5
20260904170303 88 320 6.0 13.0 0.00 0.05 0.05 60 1011.5
20260904165803 88 326 5.0 10.0 0.00 0.05 0.05 62 1011.6
20260904164304 88 23 6.0 10.0 0.00 0.05 0.05 63 1011.8
20260904162804 87 348 6.0 12.0 0.00 0.05 0.05 66 1012.1
20260904161803 87 294 6.0 12.0 0.00 0.06 0.05 65 1012.2
20260904161304 86 298 4.0 12.0 0.00 0.07 0.05 68 1012.2
20260904160304 86 277 5.0 10.0 0.00 0.07 0.05 67 1012.2
20260904155804 86 289 7.0 13.0 0.00 0.07 0.05 66 1012.2
20260904155306 86 299 5.0 12.0 0.00 0.07 0.05 67 1012.1
20260904154804 86 302 6.0 10.0 0.00 0.08 0.05 66 1012.2
20260904153304 86 302 5.0 12.0 0.00 0.08 0.05 66 1012.4
20260904152804 86 306 7.0 14.0 0.00 0.08 0.05 66 1012.6
20260904151803 86 326 3.0 9.0 0.00 0.08 0.05 67 1012.5
20260904151303 85 312 6.0 12.0 0.00 0.08 0.05 68 1012.4
20260904150803 85 320 7.0 13.0 0.00 0.08 0.05 68 1012.4
20260904150304 85 334 6.0 10.0 0.00 0.08 0.05 68 1012.4
20260904145803 85 342 5.0 12.0 0.00 0.08 0.05 68 1012.3
20260904145305 85 337 9.0 13.0 0.00 0.08 0.05 68 1012.5
20260904144804 84 305 7.0 12.0 0.00 0.08 0.05 69 1012.5
20260904144304 84 285 5.0 9.0 0.00 0.08 0.05 70 1012.4
20260904143804 83 355 3.0 9.0 0.00 0.08 0.05 72 1012.5
20260904143304 83 12 5.0 13.0 0.00 0.08 0.05 71 1012.5
20260904142804 83 339 7.0 13.0 0.00 0.08 0.05 72 1012.5
20260904142306 83 11 9.0 14.0 0.00 0.08 0.05 71 1012.3
20260904141803 83 14 11.0 17.0 0.00 0.08 0.05 71 1012.3
20260904140803 83 329 10.0 17.0 0.00 0.08 0.05 73 1012.4
20260904140303 83 277 6.0 15.0 0.00 0.08 0.05 74 1012.3
20260904135804 83 302 5.0 12.0 0.00 0.08 0.05 74 1012.3
20260904135306 82 306 5.0 12.0 0.00 0.08 0.05 75 1012.3
20260904134304 82 321 6.0 10.0 0.00 0.08 0.05 76 1012.6
20260904133803 82 349 6.0 12.0 0.00 0.08 0.05 77 1012.6
20260904132803 81 327 5.0 14.0 0.00 0.08 0.05 79 1012.3
20260904132306 80 335 5.0 9.0 0.00 0.08 0.05 81 1012.3
20260904131804 79 344 3.0 8.0 0.00 0.08 0.05 81 1012.3
20260904131303 79 315 6.0 12.0 0.00 0.08 0.05 83 1012.2
20260904130803 78 309 6.0 10.0 0.00 0.08 0.05 87 1012.2
20260904125803 77 302 0.0 2.0 0.01 0.08 0.05 92 1012.3
20260904125305 76 302 0.0 2.0 0.01 0.08 0.05 93 1012.3
20260904124803 75 302 1.0 3.0 0.01 0.08 0.05 94 1012.3
20260904124303 75 288 2.0 3.0 0.01 0.08 0.05 94 1012.3
20260904123803 74 225 2.0 5.0 0.01 0.08 0.05 94 1012.4
20260904123303 74 308 3.0 8.0 0.01 0.08 0.05 95 1012.5
20260904122804 73 301 2.0 5.0 0.01 0.08 0.05 95 1012.5
20260904121803 73 319 4.0 8.0 0.01 0.08 0.05 95 1012.4
20260904120304 72 300 5.0 9.0 0.01 0.08 0.05 95 1012.2
20260904115306 72 296 5.0 9.0 0.00 0.07 0.04 95 1012.2
20260904114804 72 282 5.0 8.0 0.00 0.07 0.04 95 1012.2
20260904114304 72 303 3.0 9.0 0.00 0.07 0.04 95 1012.2
20260904113804 71 281 3.0 7.0 0.00 0.07 0.04 95 1012.1
20260904113304 71 282 2.0 9.0 0.00 0.07 0.04 95 1012.1
20260904112804 71 315 2.0 8.0 0.00 0.07 0.04 95 1012.1
20260904112305 71 299 2.0 6.0 0.00 0.07 0.04 95 1012.0
20260904111803 71 299 2.0 7.0 0.00 0.07 0.04 95 1012.0
20260904111303 71 277 5.0 9.0 0.00 0.07 0.04 95 1012.0
20260904110803 71 287 2.0 6.0 0.00 0.07 0.04 95 1011.9
20260904110303 71 279 2.0 7.0 0.00 0.07 0.04 95 1011.8
20260904105804 71 273 1.0 3.0 0.00 0.07 0.04 95 1011.7
20260904105306 71 293 1.0 3.0 0.00 0.07 0.04 95 1011.8
20260904104804 71 218 1.0 3.0 0.00 0.07 0.04 95 1011.7
20260904103803 72 254 1.0 3.0 0.01 0.07 0.04 95 1011.8
20260904102803 72 249 2.0 3.0 0.01 0.07 0.04 95 1011.7
20260904102306 72 199 2.0 3.0 0.01 0.07 0.04 95 1011.4
20260904101804 72 175 3.0 3.0 0.01 0.07 0.04 95 1011.3
20260904100804 72 65 0.0 0.0 0.01 0.07 0.04 95 1011.5
20260904100303 72 65 1.0 3.0 0.01 0.07 0.04 95 1011.4
20260904095306 72 352 2.0 5.0 0.01 0.07 0.04 95 1011.7
20260904094303 72 316 2.0 7.0 0.00 0.06 0.03 95 1012.2
20260904093803 72 289 3.0 7.0 0.00 0.06 0.03 95 1012.0
20260904093304 72 109 2.0 3.0 0.00 0.06 0.03 94 1011.5
20260904092803 72 109 0.0 0.0 0.00 0.06 0.03 94 1011.2
20260904092306 72 109 1.0 3.0 0.00 0.06 0.03 95 1011.1
20260904091803 72 23 2.0 3.0 0.00 0.06 0.03 94 1011.2
20260904091303 72 23 1.0 2.0 0.00 0.06 0.03 94 1011.1
20260904090803 72 23 1.0 2.0 0.00 0.06 0.03 94 1011.1
20260904085804 72 23 2.0 3.0 0.00 0.06 0.03 94 1011.2
20260904084804 72 23 2.0 3.0 0.00 0.06 0.03 94 1011.3
20260904084304 72 23 2.0 3.0 0.00 0.06 0.03 94 1011.3
20260904083804 72 280 0.0 3.0 0.00 0.06 0.03 94 1011.3
20260904083304 72 280 0.0 3.0 0.00 0.06 0.03 94 1011.3
20260904082803 72 219 2.0 3.0 0.00 0.06 0.03 94 1011.3
20260904082306 72 236 2.0 3.0 0.00 0.06 0.03 94 1011.3
20260904081804 72 216 2.0 3.0 0.00 0.06 0.03 94 1011.3
20260904081303 72 235 3.0 5.0 0.00 0.06 0.03 94 1011.3
20260904080304 72 198 3.0 6.0 0.00 0.06 0.03 94 1011.5
20260904075803 72 219 2.0 3.0 0.00 0.06 0.03 93 1011.5
20260904073803 72 181 3.0 7.0 0.00 0.06 0.03 93 1011.7
20260904073304 72 225 2.0 3.0 0.00 0.06 0.03 93 1011.6
20260904072804 72 225 2.0 3.0 0.00 0.06 0.03 93 1011.4
20260904071304 72 225 2.0 3.0 0.00 0.06 0.03 93 1011.2
20260904070303 72 185 2.0 3.0 0.00 0.06 0.03 92 1011.2
20260904065804 72 198 2.0 3.0 0.00 0.06 0.03 92 1011.2
20260904065306 72 198 2.0 3.0 0.00 0.06 0.03 92 1011.2
20260904064303 72 196 3.0 5.0 0.00 0.06 0.03 92 1011.0
20260904063804 72 199 2.0 7.0 0.00 0.06 0.03 92 1010.9
20260904062803 72 189 2.0 5.0 0.00 0.06 0.03 92 1010.7
20260904062306 72 192 3.0 5.0 0.00 0.06 0.03 91 1010.7
20260904061803 72 186 2.0 3.0 0.00 0.06 0.03 91 1010.8
20260904061304 72 220 2.0 3.0 0.00 0.06 0.03 91 1010.9
20260904060805 72 238 1.0 3.0 0.00 0.06 0.03 91 1010.8
20260904055803 72 247 3.0 7.0 0.00 0.06 0.03 91 1010.9
20260904055306 72 265 2.0 6.0 0.00 0.06 0.03 91 1010.9
20260904054803 72 295 3.0 8.0 0.00 0.06 0.03 91 1010.9
20260904054305 73 259 2.0 3.0 0.00 0.06 0.03 91 1011.0
20260904053804 73 274 2.0 8.0 0.00 0.06 0.03 91 1011.0
20260904053304 73 280 7.0 12.0 0.00 0.06 0.03 91 1010.8
20260904052804 73 288 3.0 6.0 0.00 0.06 0.03 91 1010.8
20260904052307 73 210 5.0 6.0 0.00 0.06 0.03 90 1010.8
20260904051804 73 224 3.0 9.0 0.01 0.06 0.03 90 1010.8
20260904051303 73 268 2.0 10.0 0.03 0.06 0.03 90 1011.1
20260904050804 73 243 5.0 12.0 0.03 0.06 0.03 90 1011.3
20260904050304 73 229 4.0 12.0 0.03 0.06 0.03 89 1011.2
20260904045804 73 236 6.0 12.0 0.00 0.06 0.03 89 1011.2
20260904045306 74 218 5.0 10.0 0.00 0.06 0.03 88 1011.2
20260904044304 74 203 9.0 12.0 0.00 0.06 0.03 87 1011.1
20260904043804 75 266 7.0 13.0 0.00 0.06 0.03 86 1011.1
20260904043303 75 298 10.0 14.0 0.00 0.06 0.03 86 1011.1
20260904042803 75 303 7.0 14.0 0.00 0.06 0.03 85 1011.3
20260904041804 77 325 13.0 26.0 0.02 0.05 0.02 83 1012.2
20260904041304 77 311 14.0 25.0 0.00 0.03 0.00 82 1012.3
20260904040304 78 314 13.0 21.0 0.00 0.03 0.00 79 1011.7
20260904035804 78 330 8.0 16.0 0.00 0.03 0.03 80 1011.6
20260904035306 78 301 7.0 12.0 0.00 0.03 0.03 79 1010.9
20260904034804 78 302 8.0 13.0 0.00 0.03 0.03 79 1011.0
20260904034303 78 307 8.0 12.0 0.00 0.03 0.03 78 1011.0
20260904033303 80 309 9.0 16.0 0.00 0.03 0.03 78 1011.2
20260904031804 82 300 9.0 22.0 0.00 0.03 0.03 76 1011.9
20260904031303 82 313 12.0 28.0 0.00 0.03 0.03 78 1012.3
20260904030805 83 322 13.0 23.0 0.00 0.03 0.03 83 1012.4
20260904030304 83 324 4.0 7.0 0.00 0.03 0.03 83 1011.8
20260904025804 83 302 2.0 3.0 0.00 0.03 0.03 83 1011.7
20260904025306 83 271 1.0 3.0 0.00 0.03 0.03 82 1011.6
20260904024804 83 233 1.0 3.0 0.00 0.03 0.03 82 1011.6
20260904024304 83 295 1.0 7.0 0.00 0.03 0.03 82 1011.7
20260904023804 83 262 1.0 3.0 0.00 0.03 0.03 82 1011.6
20260904022306 83 287 1.0 3.0 0.00 0.03 0.03 82 1011.7
20260904021805 83 239 1.0 3.0 0.00 0.03 0.03 81 1011.5
20260904021304 83 231 2.0 3.0 0.00 0.03 0.03 81 1011.5
20260904020303 83 236 2.0 5.0 0.00 0.03 0.03 81 1011.5
20260904015804 83 213 2.0 7.0 0.00 0.03 0.03 81 1011.6
20260904014803 83 232 3.0 6.0 0.00 0.03 0.03 80 1011.6
20260904014304 83 245 1.0 3.0 0.00 0.03 0.03 80 1011.7
20260904013804 83 245 1.0 3.0 0.00 0.03 0.03 80 1011.5
20260904013303 83 225 1.0 3.0 0.00 0.03 0.03 80 1011.4
20260904012803 84 225 2.0 3.0 0.00 0.03 0.03 79 1011.3
20260904012306 84 225 1.0 3.0 0.00 0.03 0.03 79 1011.3
20260904011803 84 214 2.0 3.0 0.00 0.03 0.03 79 1011.2
20260904011303 84 229 2.0 3.0 0.00 0.03 0.03 79 1011.4
20260904010803 84 211 2.0 3.0 0.00 0.03 0.03 78 1011.4
20260904010304 84 234 2.0 3.0 0.00 0.03 0.03 78 1011.5
20260904005804 84 221 2.0 3.0 0.00 0.03 0.03 78 1011.7
20260904005306 84 212 2.0 5.0 0.00 0.03 0.03 77 1011.7
20260904004805 85 227 3.0 6.0 0.00 0.03 0.03 77 1011.8
20260904003305 85 230 3.0 6.0 0.00 0.03 0.03 75 1012.0
20260904002805 85 291 1.0 3.0 0.00 0.03 0.03 75 1012.0
20260904002306 85 291 2.0 3.0 0.00 0.03 0.03 74 1012.0
20260904001805 86 291 2.0 3.0 0.00 0.03 0.03 74 1012.1
20260904001305 86 243 1.0 3.0 0.00 0.03 0.03 74 1012.1
20260904000804 86 233 2.0 3.0 0.00 0.03 0.03 74 1012.1
20260904000304 86 253 2.0 3.0 0.00 0.03 0.03 73 1012.0